,,Stat6,,Stat2,,Stat8,,Stat9,,Stat10,,Wind1,,Wind1,
time,status,PA1M_AVG,status,PR1M_SUM,status,RH1M_AVG,status,SR1M_AVG,status,TA1M_AVG,status,W1dAve1m,status,W1sAve1m,
2004-08-11, 00:00:00,VALID,919.128,VALID,0,VALID,97.5537,VALID,0.0169808,VALID,19.6277,VALID,59,VALID,0.663352,
2004-08-11, 00:01:00,VALID,919.117,VALID,0,VALID,97.63,VALID,0,VALID,19.6277,VALID,51,VALID,0.850291,
2004-08-11, 00:02:00,VALID,919.116,VALID,0,VALID,97.4164,VALID,0,VALID,19.5825,VALID,51,VALID,0.690168,
2004-08-11, 00:03:00,VALID,919.13,VALID,0,VALID,97.3108,VALID,0.0169808,VALID,19.514,VALID,51,VALID,0.552684,
2004-08-11, 00:04:00,VALID,919.144,VALID,0,VALID,97.2752,VALID,0,VALID,19.4504,VALID,50,VALID,0.552778,
2004-08-11, 00:05:00,VALID,919.148,VALID,0,VALID,97.4253,VALID,0.0169808,VALID,19.4109,VALID,49,VALID,0.589844,
2004-08-11, 00:06:00,VALID,919.167,VALID,0,VALID,97.5155,VALID,0,VALID,19.3757,VALID,49,VALID,0.578993,
2004-08-11, 00:07:00,VALID,919.17,VALID,0,VALID,97.7953,VALID,-0.0169808,VALID,19.3662,VALID,49,VALID,0.515053,
2004-08-11, 00:08:00,VALID,919.171,VALID,0,VALID,98.0483,VALID,0.0169808,VALID,19.3826,VALID,49,VALID,0.447856,
2004-08-11, 00:09:00,VALID,919.15,VALID,0,VALID,98.2887,VALID,0,VALID,19.392,VALID,49,VALID,0.434524,
2004-08-11, 00:10:00,VALID,919.145,VALID,0,VALID,98.4146,VALID,0,VALID,19.4278,VALID,49,VALID,0.329942,
2004-08-11, 00:11:00,VALID,919.116,VALID,0,VALID,98.4832,VALID,0.0169808,VALID,19.4502,VALID,49,VALID,0.291493,
2004-08-11, 00:12:00,VALID,919.112,VALID,0,VALID,98.5252,VALID,-0.0169808,VALID,19.4665,VALID,49,VALID,0.0609375,
2004-08-11, 00:13:00,VALID,919.086,VALID,0,VALID,98.5633,VALID,0.0169808,VALID,19.4857,VALID,49,VALID,0.00218023,
2004-08-11, 00:14:00,VALID,919.076,VALID,0,VALID,98.4998,VALID,0.0339617,VALID,19.4857,VALID,49,VALID,0,
2004-08-11, 00:15:00,VALID,919.067,VALID,0,VALID,98.3268,VALID,0,VALID,19.4797,VALID,49,VALID,0,
2004-08-11, 00:16:00,VALID,919.061,VALID,0,VALID,98.3459,VALID,0,VALID,19.4827,VALID,46,VALID,0.0314236,
2004-08-11, 00:17:00,VALID,919.051,VALID,0,VALID,98.3217,VALID,0,VALID,19.4857,VALID,8,VALID,0.523256,
2004-08-11, 00:18:00,VALID,919.045,VALID,0,VALID,98.59,VALID,0,VALID,19.5443,VALID,348,VALID,0.595833,
2004-08-11, 00:19:00,VALID,919.03,VALID,0,VALID,98.6854,VALID,0.0169808,VALID,19.5664,VALID,325,VALID,0.334722,
2004-08-11, 00:20:00,VALID,919.025,VALID,0,VALID,98.632,VALID,0,VALID,19.5798,VALID,325,VALID,0.00729167,
2004-08-11, 00:21:00,VALID,919.017,VALID,0,VALID,98.5888,VALID,0,VALID,19.5927,VALID,325,VALID,0.0941311,
2004-08-11, 00:22:00,VALID,919.001,VALID,0,VALID,98.6002,VALID,0,VALID,19.6024,VALID,325,VALID,0.00190549,
2004-08-11, 00:23:00,VALID,918.993,VALID,0,VALID,98.412,VALID,0,VALID,19.5862,VALID,325,VALID,0.000585938,
2004-08-11, 00:24:00,VALID,918.977,VALID,0,VALID,97.7902,VALID,0,VALID,19.509,VALID,325,VALID,0.000762195,
2004-08-11, 00:25:00,VALID,918.955,VALID,0,VALID,97.335,VALID,0.0169808,VALID,19.4117,VALID,325,VALID,0,
2004-08-11, 00:26:00,VALID,918.93,VALID,0,VALID,96.6763,VALID,0.0169808,VALID,19.3088,VALID,325,VALID,0,
2004-08-11, 00:27:00,VALID,918.905,VALID,0,VALID,96.6038,VALID,0,VALID,19.1988,VALID,325,VALID,0.309095,
2004-08-11, 00:28:00,VALID,918.876,VALID,0,VALID,96.8886,VALID,0.0339617,VALID,19.1373,VALID,325,VALID,0.244913,
2004-08-11, 00:29:00,VALID,918.841,VALID,0,VALID,97.1328,VALID,0,VALID,19.1087,VALID,325,VALID,0.132457,
2004-08-11, 00:30:00,VALID,918.82,VALID,0,VALID,98.1017,VALID,0.0339617,VALID,19.1673,VALID,320,VALID,0.304332,
2004-08-11, 00:31:00,VALID,918.8,VALID,0,VALID,98.9346,VALID,0,VALID,19.2768,VALID,320,VALID,0.227307,
2004-08-11, 00:32:00,VALID,918.775,VALID,0,VALID,99.2424,VALID,0.0169808,VALID,19.3446,VALID,320,VALID,0.0425967,
2004-08-11, 00:33:00,VALID,918.743,VALID,0,VALID,99.1674,VALID,0,VALID,19.3508,VALID,320,VALID,0.0751736,
2004-08-11, 00:34:00,VALID,918.73,VALID,0,VALID,98.9677,VALID,0,VALID,19.3121,VALID,320,VALID,0.129156,
2004-08-11, 00:35:00,VALID,918.701,VALID,0,VALID,98.9512,VALID,-0.0169808,VALID,19.2636,VALID,320,VALID,0.21766,
2004-08-11, 00:36:00,VALID,918.686,VALID,0,VALID,98.763,VALID,0,VALID,19.2122,VALID,320,VALID,0.127362,
2004-08-11, 00:37:00,VALID,918.662,VALID,0,VALID,98.6473,VALID,-0.0169808,VALID,19.1382,VALID,320,VALID,0,
2004-08-11, 00:38:00,VALID,918.645,VALID,0,VALID,98.5621,VALID,0.0169808,VALID,19.0667,VALID,320,VALID,0,
2004-08-11, 00:39:00,VALID,918.636,VALID,0,VALID,98.5163,VALID,0.0509425,VALID,19.028,VALID,320,VALID,0,
2004-08-11, 00:40:00,VALID,918.618,VALID,0,VALID,98.0433,VALID,0.0339617,VALID,18.9314,VALID,320,VALID,0,
2004-08-11, 00:41:00,VALID,918.612,VALID,0,VALID,97.9708,VALID,0.0169808,VALID,18.8442,VALID,349,VALID,0.416211,
2004-08-11, 00:42:00,VALID,918.586,VALID,0,VALID,98.0954,VALID,0.0169808,VALID,18.7961,VALID,353,VALID,0.351563,
2004-08-11, 00:43:00,VALID,918.574,VALID,0,VALID,98.4425,VALID,0,VALID,18.7601,VALID,353,VALID,0.322493,
2004-08-11, 00:44:00,VALID,918.549,VALID,0,VALID,99.0326,VALID,0,VALID,18.7861,VALID,353,VALID,0.232986,
2004-08-11, 00:45:00,VALID,918.52,VALID,0,VALID,99.2576,VALID,0.0169808,VALID,18.8189,VALID,353,VALID,0.275586,
2004-08-11, 00:46:00,VALID,918.485,VALID,0,VALID,99.6887,VALID,0,VALID,18.8641,VALID,353,VALID,0.48125,
2004-08-11, 00:47:00,VALID,918.475,VALID,0,VALID,99.8362,VALID,0,VALID,18.9192,VALID,359,VALID,0.512607,
2004-08-11, 00:48:00,VALID,918.454,VALID,0,VALID,99.8756,VALID,-0.0169808,VALID,18.9252,VALID,37,VALID,0.620703,
2004-08-11, 00:49:00,VALID,918.468,VALID,0,VALID,99.9967,VALID,0.0339617,VALID,18.9669,VALID,38,VALID,0.580793,
2004-08-11, 00:50:00,VALID,918.463,VALID,0,VALID,99.9977,VALID,0.0169808,VALID,18.993,VALID,43,VALID,0.580788,
2004-08-11, 00:51:00,VALID,918.46,VALID,0,VALID,99.9939,VALID,0.0169808,VALID,18.99,VALID,73,VALID,0.743118,
2004-08-11, 00:52:00,VALID,918.432,VALID,0,VALID,100,VALID,0.0339617,VALID,18.9833,VALID,73,VALID,0.778942,
2004-08-11, 00:53:00,VALID,918.426,VALID,0,VALID,99.9512,VALID,0.0169808,VALID,18.9641,VALID,73,VALID,0.791061,
2004-08-11, 00:54:00,VALID,918.43,VALID,0,VALID,99.7281,VALID,0,VALID,18.8837,VALID,73,VALID,0.762386,
2004-08-11, 00:55:00,VALID,918.431,VALID,0,VALID,99.3912,VALID,0,VALID,18.7573,VALID,73,VALID,0.384448,
2004-08-11, 00:56:00,VALID,918.437,VALID,0,VALID,99.6429,VALID,0,VALID,18.7061,VALID,73,VALID,0.438033,
2004-08-11, 00:57:00,VALID,918.433,VALID,0,VALID,100,VALID,0,VALID,18.7769,VALID,73,VALID,0.564317,
2004-08-11, 00:58:00,VALID,918.434,VALID,0,VALID,100,VALID,-0.0169808,VALID,18.8742,VALID,89,VALID,0.73316,
2004-08-11, 00:59:00,VALID,918.443,VALID,0,VALID,100,VALID,0,VALID,18.9351,VALID,93,VALID,0.558966,
2004-08-11, 01:00:00,VALID,918.447,VALID,0,VALID,99.9672,VALID,0,VALID,18.9123,VALID,72,VALID,0.594512,
2004-08-11, 01:01:00,VALID,918.44,VALID,0,VALID,99.7027,VALID,-0.0169808,VALID,18.7707,VALID,51,VALID,0.756479,
2004-08-11, 01:02:00,VALID,918.442,VALID,0,VALID,100,VALID,0,VALID,18.8027,VALID,49,VALID,0.503348,
2004-08-11, 01:03:00,VALID,918.432,VALID,0,VALID,99.9807,VALID,-0.0169808,VALID,18.8097,VALID,48,VALID,0.388579,
2004-08-11, 01:04:00,VALID,918.428,VALID,0,VALID,100,VALID,0,VALID,18.8323,VALID,48,VALID,0.271151,
2004-08-11, 01:05:00,VALID,918.419,VALID,0,VALID,100,VALID,0,VALID,18.8516,VALID,48,VALID,0.324591,
2004-08-11, 01:06:00,VALID,918.429,VALID,0,VALID,99.9298,VALID,0,VALID,18.8092,VALID,48,VALID,0.425781,
2004-08-11, 01:07:00,VALID,918.455,VALID,0,VALID,99.8388,VALID,0,VALID,18.7677,VALID,48,VALID,0.553571,
2004-08-11, 01:08:00,VALID,918.459,VALID,0,VALID,99.8856,VALID,0,VALID,18.7287,VALID,48,VALID,0.685742,
2004-08-11, 01:09:00,VALID,918.477,VALID,0,VALID,99.8932,VALID,0,VALID,18.7255,VALID,48,VALID,0.800509,
2004-08-11, 01:10:00,VALID,918.495,VALID,0,VALID,99.4268,VALID,0,VALID,18.6125,VALID,48,VALID,0.814808,
2004-08-11, 01:11:00,VALID,918.508,VALID,0,VALID,99.6111,VALID,0,VALID,18.5837,VALID,48,VALID,0.572311,
2004-08-11, 01:12:00,VALID,918.507,VALID,0,VALID,99.9524,VALID,0,VALID,18.6321,VALID,48,VALID,0.455124,
2004-08-11, 01:13:00,VALID,918.494,VALID,0,VALID,100,VALID,0,VALID,18.6997,VALID,48,VALID,0.560742,
2004-08-11, 01:14:00,VALID,918.469,VALID,0,VALID,99.9799,VALID,0,VALID,18.729,VALID,48,VALID,0.493278,
2004-08-11, 01:15:00,VALID,918.453,VALID,0,VALID,99.5374,VALID,0,VALID,18.6033,VALID,48,VALID,0.630269,
2004-08-11, 01:16:00,VALID,918.441,VALID,0,VALID,99.3543,VALID,0.0169808,VALID,18.4996,VALID,48,VALID,0.567255,
2004-08-11, 01:17:00,VALID,918.436,VALID,0,VALID,99.3632,VALID,0,VALID,18.4355,VALID,48,VALID,0.447493,
2004-08-11, 01:18:00,VALID,918.447,VALID,0,VALID,99.6111,VALID,0,VALID,18.429,VALID,47,VALID,0.350991,
2004-08-11, 01:19:00,VALID,918.443,VALID,0,VALID,99.9863,VALID,0,VALID,18.5355,VALID,345,VALID,0.50558,
2004-08-11, 01:20:00,VALID,918.433,VALID,0,VALID,100,VALID,0,VALID,18.6771,VALID,297,VALID,0.63548,
2004-08-11, 01:21:00,VALID,918.427,VALID,0,VALID,100,VALID,0,VALID,18.761,VALID,293,VALID,0.382449,
2004-08-11, 01:22:00,VALID,918.433,VALID,0,VALID,100,VALID,0,VALID,18.8489,VALID,293,VALID,0.307594,
2004-08-11, 01:23:00,VALID,918.444,VALID,0,VALID,100,VALID,0,VALID,18.8839,VALID,293,VALID,0.358842,
2004-08-11, 01:24:00,VALID,918.43,VALID,0,VALID,100,VALID,0,VALID,18.9227,VALID,292,VALID,0.305959,
2004-08-11, 01:25:00,VALID,918.407,VALID,0,VALID,100,VALID,0.0169808,VALID,18.9356,VALID,300,VALID,0.199609,
2004-08-11, 01:26:00,VALID,918.396,VALID,0,VALID,100,VALID,0,VALID,18.9169,VALID,339,VALID,0.406977,
2004-08-11, 01:27:00,VALID,918.395,VALID,0,VALID,100,VALID,0,VALID,18.7903,VALID,341,VALID,0.434775,
2004-08-11, 01:28:00,VALID,918.393,VALID,0,VALID,100,VALID,0,VALID,18.7645,VALID,340,VALID,0.502907,
2004-08-11, 01:29:00,VALID,918.4,VALID,0,VALID,100,VALID,0,VALID,18.8168,VALID,338,VALID,0.159412,
2004-08-11, 01:30:00,VALID,918.386,VALID,0,VALID,100,VALID,0.0169808,VALID,18.8549,VALID,338,VALID,0,
2004-08-11, 01:31:00,VALID,918.382,VALID,0,VALID,100,VALID,0,VALID,18.8871,VALID,338,VALID,0,
2004-08-11, 01:32:00,VALID,918.374,VALID,0,VALID,100,VALID,0,VALID,18.8941,VALID,338,VALID,0,
2004-08-11, 01:33:00,VALID,918.381,VALID,0,VALID,100,VALID,0,VALID,18.8906,VALID,338,VALID,0,
2004-08-11, 01:34:00,VALID,918.378,VALID,0,VALID,100,VALID,0,VALID,18.9197,VALID,338,VALID,0,
2004-08-11, 01:35:00,VALID,918.388,VALID,0,VALID,100,VALID,0,VALID,18.9259,VALID,338,VALID,0.0890625,
2004-08-11, 01:36:00,VALID,918.382,VALID,0,VALID,100,VALID,0,VALID,18.936,VALID,338,VALID,0.310724,
2004-08-11, 01:37:00,VALID,918.378,VALID,0,VALID,100,VALID,0,VALID,18.9487,VALID,338,VALID,0.0090843,
2004-08-11, 01:38:00,VALID,918.363,VALID,0,VALID,100,VALID,0.0169808,VALID,18.9649,VALID,338,VALID,0,
2004-08-11, 01:39:00,VALID,918.372,VALID,0,VALID,100,VALID,0,VALID,18.9641,VALID,338,VALID,0,
2004-08-11, 01:40:00,VALID,918.377,VALID,0,VALID,100,VALID,0.0509425,VALID,18.9738,VALID,338,VALID,0,
2004-08-11, 01:41:00,VALID,918.365,VALID,0,VALID,100,VALID,0.0509425,VALID,18.9768,VALID,338,VALID,0.00332031,
2004-08-11, 01:42:00,VALID,918.351,VALID,0,VALID,100,VALID,0,VALID,18.916,VALID,349,VALID,0.500545,
2004-08-11, 01:43:00,VALID,918.321,VALID,0,VALID,100,VALID,0.0509425,VALID,18.8348,VALID,21,VALID,0.993376,
2004-08-11, 01:44:00,VALID,918.313,VALID,0,VALID,100,VALID,0.0339617,VALID,18.8323,VALID,18,VALID,0.985119,
2004-08-11, 01:45:00,VALID,918.278,VALID,0,VALID,100,VALID,0.0169808,VALID,18.8742,VALID,19,VALID,0.700763,
2004-08-11, 01:46:00,VALID,918.256,VALID,0,VALID,100,VALID,0,VALID,18.8544,VALID,19,VALID,0.368096,
2004-08-11, 01:47:00,VALID,918.232,VALID,0,VALID,100,VALID,0.0339617,VALID,18.8708,VALID,19,VALID,0.218378,
2004-08-11, 01:48:00,VALID,918.215,VALID,0,VALID,100,VALID,0.0339617,VALID,18.8931,VALID,19,VALID,0.0704901,
2004-08-11, 01:49:00,VALID,918.201,VALID,0,VALID,100,VALID,0,VALID,18.9381,VALID,19,VALID,0.236683,
2004-08-11, 01:50:00,VALID,918.191,VALID,0,VALID,100,VALID,0,VALID,18.9619,VALID,19,VALID,0.525981,
2004-08-11, 01:51:00,VALID,918.194,VALID,0,VALID,100,VALID,0.0169808,VALID,18.9231,VALID,19,VALID,0.259549,
2004-08-11, 01:52:00,VALID,918.2,VALID,0,VALID,100,VALID,0.0169808,VALID,18.8549,VALID,19,VALID,0.194602,
2004-08-11, 01:53:00,VALID,918.202,VALID,0,VALID,100,VALID,0.0169808,VALID,18.8482,VALID,19,VALID,0.0584985,
2004-08-11, 01:54:00,VALID,918.201,VALID,0,VALID,100,VALID,-0.0849042,VALID,18.8618,VALID,19,VALID,0.000952744,
2004-08-11, 01:55:00,VALID,918.203,VALID,0,VALID,100,VALID,-0.0849042,VALID,18.8978,VALID,19,VALID,0.0644985,
2004-08-11, 01:56:00,VALID,918.204,VALID,0,VALID,100,VALID,-0.0849042,VALID,18.9045,VALID,19,VALID,0,
2004-08-11, 01:57:00,VALID,918.206,VALID,0,VALID,100,VALID,-0.101885,VALID,18.9075,VALID,21,VALID,0.169567,
2004-08-11, 01:58:00,VALID,918.22,VALID,0,VALID,100,VALID,-0.0509425,VALID,18.9107,VALID,24,VALID,0.379167,
2004-08-11, 01:59:00,VALID,918.249,VALID,0,VALID,100,VALID,-0.0679233,VALID,18.9268,VALID,24,VALID,0.487464,
2004-08-11, 02:00:00,VALID,918.277,VALID,0,VALID,100,VALID,-0.0849042,VALID,18.9238,VALID,24,VALID,0.43423,
2004-08-11, 02:01:00,VALID,918.289,VALID,0,VALID,100,VALID,-0.0849042,VALID,18.9114,VALID,24,VALID,0.256541,
2004-08-11, 02:02:00,VALID,918.299,VALID,0,VALID,100,VALID,-0.0849042,VALID,18.9072,VALID,24,VALID,0.183222,
2004-08-11, 02:03:00,VALID,918.305,VALID,0,VALID,100,VALID,-0.101885,VALID,18.9209,VALID,24,VALID,0,
2004-08-11, 02:04:00,VALID,918.308,VALID,0,VALID,100,VALID,-0.101885,VALID,18.9464,VALID,24,VALID,0,
2004-08-11, 02:05:00,VALID,918.295,VALID,0,VALID,100,VALID,-0.101885,VALID,18.9661,VALID,24,VALID,0.0187872,
2004-08-11, 02:06:00,VALID,918.312,VALID,0,VALID,100,VALID,-0.0679233,VALID,18.9785,VALID,24,VALID,0.141644,
2004-08-11, 02:07:00,VALID,918.33,VALID,0,VALID,100,VALID,-0.118866,VALID,18.9949,VALID,24,VALID,0.307422,
2004-08-11, 02:08:00,VALID,918.342,VALID,0,VALID,100,VALID,-0.0679233,VALID,19.017,VALID,24,VALID,0.261265,
2004-08-11, 02:09:00,VALID,918.368,VALID,0,VALID,100,VALID,-0.0339617,VALID,19.0297,VALID,24,VALID,0.105824,
2004-08-11, 02:10:00,VALID,918.37,VALID,0,VALID,100,VALID,-0.0339617,VALID,19.0592,VALID,24,VALID,0.193266,
2004-08-11, 02:11:00,VALID,918.384,VALID,0,VALID,100,VALID,-0.0509425,VALID,19.0423,VALID,24,VALID,0.284299,
2004-08-11, 02:12:00,VALID,918.406,VALID,0,VALID,100,VALID,-0.0509425,VALID,19.0622,VALID,24,VALID,0.349657,
2004-08-11, 02:13:00,VALID,918.4,VALID,0,VALID,100,VALID,-0.0509425,VALID,19.0783,VALID,24,VALID,0.246548,
2004-08-11, 02:14:00,VALID,918.398,VALID,0,VALID,100,VALID,-0.0679233,VALID,19.0843,VALID,24,VALID,0.32976,
2004-08-11, 02:15:00,VALID,918.383,VALID,0,VALID,100,VALID,-0.0339617,VALID,19.0975,VALID,24,VALID,0.0411005,
2004-08-11, 02:16:00,VALID,918.371,VALID,0,VALID,100,VALID,-0.101885,VALID,19.1138,VALID,24,VALID,0.450174,
2004-08-11, 02:17:00,VALID,918.365,VALID,0,VALID,100,VALID,-0.0509425,VALID,19.124,VALID,24,VALID,0.464844,
2004-08-11, 02:18:00,VALID,918.36,VALID,0,VALID,100,VALID,-0.0679233,VALID,19.1069,VALID,24,VALID,0.386133,
2004-08-11, 02:19:00,VALID,918.371,VALID,0,VALID,100,VALID,-0.0169808,VALID,19.1134,VALID,24,VALID,0.0426136,
2004-08-11, 02:20:00,VALID,918.381,VALID,0,VALID,100,VALID,-0.0849042,VALID,19.1203,VALID,24,VALID,0,
2004-08-11, 02:21:00,VALID,918.39,VALID,0,VALID,100,VALID,-0.0339617,VALID,19.1233,VALID,24,VALID,0,
2004-08-11, 02:22:00,VALID,918.385,VALID,0,VALID,100,VALID,-0.0849042,VALID,19.1397,VALID,24,VALID,0.178285,
2004-08-11, 02:23:00,VALID,918.39,VALID,0,VALID,100,VALID,-0.0339617,VALID,19.1528,VALID,24,VALID,0.115589,
2004-08-11, 02:24:00,VALID,918.379,VALID,0,VALID,100,VALID,0,VALID,19.1477,VALID,24,VALID,0.0363991,
2004-08-11, 02:25:00,VALID,918.375,VALID,0,VALID,100,VALID,0.0339617,VALID,19.1641,VALID,24,VALID,0.0453869,
2004-08-11, 02:26:00,VALID,918.368,VALID,0,VALID,100,VALID,0.0169808,VALID,19.1514,VALID,24,VALID,0.443824,
2004-08-11, 02:27:00,VALID,918.362,VALID,0,VALID,100,VALID,0.0339617,VALID,19.1549,VALID,27,VALID,0.422053,
2004-08-11, 02:28:00,VALID,918.376,VALID,0,VALID,100,VALID,0.0339617,VALID,19.1415,VALID,27,VALID,0.0884146,
2004-08-11, 02:29:00,VALID,918.4,VALID,0,VALID,100,VALID,0.0339617,VALID,19.1412,VALID,27,VALID,0.242898,
2004-08-11, 02:30:00,VALID,918.408,VALID,0,VALID,99.9954,VALID,0.0679233,VALID,19.1352,VALID,137,VALID,0.488839,
2004-08-11, 02:31:00,VALID,918.412,VALID,0,VALID,99.9896,VALID,0.0169808,VALID,19.1189,VALID,183,VALID,0.259084,
2004-08-11, 02:32:00,VALID,918.392,VALID,0,VALID,99.971,VALID,0.0339617,VALID,19.1122,VALID,182,VALID,0.212054,
2004-08-11, 02:33:00,VALID,918.391,VALID,0,VALID,99.9708,VALID,0.0339617,VALID,19.1025,VALID,178,VALID,0.200694,
2004-08-11, 02:34:00,VALID,918.4,VALID,0,VALID,99.9634,VALID,0.0509425,VALID,19.096,VALID,45,VALID,0.585565,
2004-08-11, 02:35:00,VALID,918.413,VALID,0,VALID,99.9456,VALID,0.0339617,VALID,19.0861,VALID,24,VALID,0.506747,
2004-08-11, 02:36:00,VALID,918.433,VALID,0,VALID,99.9303,VALID,0.0509425,VALID,19.0834,VALID,22,VALID,0.455611,
2004-08-11, 02:37:00,VALID,918.459,VALID,0,VALID,99.8845,VALID,0.0169808,VALID,19.0667,VALID,22,VALID,0.144985,
2004-08-11, 02:38:00,VALID,918.468,VALID,0,VALID,99.8667,VALID,0.0339617,VALID,19.0801,VALID,22,VALID,0,
2004-08-11, 02:39:00,VALID,918.457,VALID,0,VALID,99.8171,VALID,0.0169808,VALID,19.0707,VALID,22,VALID,0,
2004-08-11, 02:40:00,VALID,918.431,VALID,0,VALID,99.7955,VALID,0,VALID,19.0704,VALID,22,VALID,0,
2004-08-11, 02:41:00,VALID,918.414,VALID,0,VALID,99.7497,VALID,0,VALID,19.0808,VALID,22,VALID,0.27468,
2004-08-11, 02:42:00,VALID,918.388,VALID,0,VALID,99.704,VALID,0,VALID,19.0573,VALID,29,VALID,0.504092,
2004-08-11, 02:43:00,VALID,918.369,VALID,0,VALID,99.7408,VALID,0.0169808,VALID,19.0637,VALID,42,VALID,0.690225,
2004-08-11, 02:44:00,VALID,918.355,VALID,0,VALID,99.8451,VALID,-0.0169808,VALID,19.0804,VALID,42,VALID,0.646205,
2004-08-11, 02:45:00,VALID,918.345,VALID,0,VALID,99.8248,VALID,0,VALID,19.1189,VALID,42,VALID,0.571075,
2004-08-11, 02:46:00,VALID,918.325,VALID,0,VALID,99.6836,VALID,0,VALID,19.1223,VALID,42,VALID,0.458097,
2004-08-11, 02:47:00,VALID,918.324,VALID,0,VALID,99.6099,VALID,0,VALID,19.1218,VALID,42,VALID,0.416726,
2004-08-11, 02:48:00,VALID,918.324,VALID,0,VALID,99.5209,VALID,0,VALID,19.132,VALID,42,VALID,0.256882,
2004-08-11, 02:49:00,VALID,918.302,VALID,0,VALID,99.4204,VALID,0,VALID,19.1184,VALID,42,VALID,0.238372,
2004-08-11, 02:50:00,VALID,918.293,VALID,0,VALID,99.3517,VALID,0.0169808,VALID,19.1251,VALID,42,VALID,0.0310595,
2004-08-11, 02:51:00,VALID,918.271,VALID,0,VALID,99.2742,VALID,0,VALID,19.1253,VALID,42,VALID,0.0117188,
2004-08-11, 02:52:00,VALID,918.247,VALID,0,VALID,99.25,VALID,0.0169808,VALID,19.135,VALID,52,VALID,0.179688,
2004-08-11, 02:53:00,VALID,918.245,VALID,0,VALID,99.2627,VALID,0,VALID,19.1382,VALID,149,VALID,0.677024,
2004-08-11, 02:54:00,VALID,918.242,VALID,0,VALID,99.2564,VALID,-0.0169808,VALID,19.1415,VALID,163,VALID,0.75327,
2004-08-11, 02:55:00,VALID,918.233,VALID,0,VALID,99.2424,VALID,0.0169808,VALID,19.1285,VALID,164,VALID,0.814808,
2004-08-11, 02:56:00,VALID,918.225,VALID,0,VALID,99.2716,VALID,0.0169808,VALID,19.1159,VALID,164,VALID,0.763207,
2004-08-11, 02:57:00,VALID,918.221,VALID,0,VALID,99.3314,VALID,0,VALID,19.0796,VALID,164,VALID,0.646076,
2004-08-11, 02:58:00,VALID,918.222,VALID,0,VALID,99.3975,VALID,0,VALID,19.0704,VALID,164,VALID,0.437309,
2004-08-11, 02:59:00,VALID,918.211,VALID,0,VALID,99.4776,VALID,0.0169808,VALID,19.0645,VALID,164,VALID,0.215774,
2004-08-11, 03:00:00,VALID,918.203,VALID,0,VALID,99.5704,VALID,0,VALID,19.0545,VALID,164,VALID,0.014881,
2004-08-11, 03:01:00,VALID,918.174,VALID,0,VALID,99.648,VALID,0.0169808,VALID,19.0518,VALID,163,VALID,0.107143,
2004-08-11, 03:02:00,VALID,918.164,VALID,0,VALID,99.765,VALID,0,VALID,19.055,VALID,145,VALID,0.132086,
2004-08-11, 03:03:00,VALID,918.148,VALID,0,VALID,99.8477,VALID,0,VALID,19.0739,VALID,145,VALID,0.159784,
2004-08-11, 03:04:00,VALID,918.154,VALID,0,VALID,99.8629,VALID,0.0169808,VALID,19.0635,VALID,145,VALID,0.078497,
2004-08-11, 03:05:00,VALID,918.124,VALID,0,VALID,99.8388,VALID,0,VALID,19.0935,VALID,145,VALID,0,
2004-08-11, 03:06:00,VALID,918.121,VALID,0,VALID,99.7701,VALID,0,VALID,19.0737,VALID,145,VALID,0,
2004-08-11, 03:07:00,VALID,918.109,VALID,0,VALID,99.7421,VALID,0,VALID,19.0672,VALID,145,VALID,0.00093006,
2004-08-11, 03:08:00,VALID,918.084,VALID,0,VALID,99.7981,VALID,-0.0169808,VALID,19.0808,VALID,145,VALID,0,
2004-08-11, 03:09:00,VALID,918.094,VALID,0,VALID,99.7879,VALID,0,VALID,19.1002,VALID,145,VALID,0,
2004-08-11, 03:10:00,VALID,918.064,VALID,0,VALID,99.7917,VALID,0,VALID,19.1,VALID,144,VALID,0.0588663,
2004-08-11, 03:11:00,VALID,918.07,VALID,0,VALID,99.7078,VALID,0,VALID,19.0898,VALID,139,VALID,0.287064,
2004-08-11, 03:12:00,VALID,918.075,VALID,0,VALID,99.6442,VALID,-0.0169808,VALID,19.0896,VALID,139,VALID,0.263393,
2004-08-11, 03:13:00,VALID,918.071,VALID,0,VALID,99.5323,VALID,0.0339617,VALID,19.0831,VALID,139,VALID,0.314276,
2004-08-11, 03:14:00,VALID,918.056,VALID,0,VALID,99.4115,VALID,-0.0169808,VALID,19.064,VALID,50,VALID,0.402435,
2004-08-11, 03:15:00,VALID,918.05,VALID,0,VALID,99.2805,VALID,0,VALID,19.0513,VALID,44,VALID,0.417969,
2004-08-11, 03:16:00,VALID,918.038,VALID,0,VALID,99.2424,VALID,0.0169808,VALID,19.0252,VALID,44,VALID,0.144717,
2004-08-11, 03:17:00,VALID,918.035,VALID,0,VALID,99.2335,VALID,0,VALID,19.0223,VALID,44,VALID,0.0538862,
2004-08-11, 03:18:00,VALID,918.008,VALID,0,VALID,99.47,VALID,0.0169808,VALID,19.0474,VALID,44,VALID,0.0790334,
2004-08-11, 03:19:00,VALID,918.011,VALID,0,VALID,99.5501,VALID,0,VALID,19.0801,VALID,44,VALID,0,
2004-08-11, 03:20:00,VALID,918.01,VALID,0,VALID,99.5488,VALID,0,VALID,19.0799,VALID,44,VALID,0.0063244,
2004-08-11, 03:21:00,VALID,917.997,VALID,0,VALID,99.456,VALID,0.0169808,VALID,19.0863,VALID,44,VALID,0,
2004-08-11, 03:22:00,VALID,917.992,VALID,0,VALID,99.2945,VALID,0,VALID,19.0476,VALID,44,VALID,0.168555,
2004-08-11, 03:23:00,VALID,917.974,VALID,0,VALID,99.0822,VALID,0,VALID,19.0091,VALID,42,VALID,0.366319,
2004-08-11, 03:24:00,VALID,917.956,VALID,0,VALID,99.0707,VALID,-0.0169808,VALID,18.9801,VALID,39,VALID,0.290551,
2004-08-11, 03:25:00,VALID,917.933,VALID,0,VALID,99.0122,VALID,0,VALID,18.9445,VALID,39,VALID,0.00677083,
2004-08-11, 03:26:00,VALID,917.901,VALID,0,VALID,99.1419,VALID,0,VALID,18.9353,VALID,39,VALID,0,
2004-08-11, 03:27:00,VALID,917.861,VALID,0,VALID,99.2704,VALID,-0.0169808,VALID,18.9254,VALID,39,VALID,0,
2004-08-11, 03:28:00,VALID,917.828,VALID,0,VALID,99.339,VALID,0,VALID,18.9249,VALID,39,VALID,0,
2004-08-11, 03:29:00,VALID,917.811,VALID,0,VALID,99.2856,VALID,0,VALID,18.9224,VALID,39,VALID,0,
2004-08-11, 03:30:00,VALID,917.816,VALID,0,VALID,99.2195,VALID,0.0169808,VALID,18.8964,VALID,39,VALID,0,
2004-08-11, 03:31:00,VALID,917.811,VALID,0,VALID,99.2131,VALID,0,VALID,18.8703,VALID,39,VALID,0.0761719,
2004-08-11, 03:32:00,VALID,917.82,VALID,0,VALID,99.1852,VALID,0,VALID,18.8445,VALID,39,VALID,0.0886009,
2004-08-11, 03:33:00,VALID,917.82,VALID,0,VALID,99.1432,VALID,-0.0169808,VALID,18.829,VALID,41,VALID,0.416903,
2004-08-11, 03:34:00,VALID,917.819,VALID,0,VALID,99.2131,VALID,0,VALID,18.8094,VALID,42,VALID,0.307173,
2004-08-11, 03:35:00,VALID,917.832,VALID,0,VALID,99.1864,VALID,0,VALID,18.7998,VALID,42,VALID,0.0951705,
2004-08-11, 03:36:00,VALID,917.827,VALID,0,VALID,98.8418,VALID,0,VALID,18.7188,VALID,42,VALID,0,
2004-08-11, 03:37:00,VALID,917.832,VALID,0,VALID,98.7261,VALID,0,VALID,18.6377,VALID,42,VALID,0.359189,
2004-08-11, 03:38:00,VALID,917.829,VALID,0,VALID,98.7108,VALID,-0.0339617,VALID,18.5934,VALID,42,VALID,0.601004,
2004-08-11, 03:39:00,VALID,917.835,VALID,0,VALID,98.7579,VALID,-0.0849042,VALID,18.5621,VALID,42,VALID,0.530362,
2004-08-11, 03:40:00,VALID,917.84,VALID,0,VALID,98.7452,VALID,-0.0509425,VALID,18.5266,VALID,42,VALID,0.449855,
2004-08-11, 03:41:00,VALID,917.832,VALID,0,VALID,98.6943,VALID,-0.0849042,VALID,18.4881,VALID,42,VALID,0.624256,